Regional Weather Roundup
Issued by NWS Newport/Morehead, NC

Current Version | Previous Version | Text Only | Print | Product List | Glossary Off
Versions: 1 2 3 4 5 6 7 8 9 10 11 12 13 14 15 16 17 18 19 20 21 22 23 24 25 26 27 28 29 30 31 32 33 34 35 36 37 38 39 40 41 42 43 44 45 46 47 48 49 50
000 ASUS42 KMHX 271125 RWRMHX WEATHER ROUNDUP FOR EASTERN NORTH CAROLINA NATIONAL WEATHER SERVICE NEWPORT/MOREHEAD CITY NC 700 AM EDT MON MAR 27 2017 NOTE: "FAIR" INDICATES FEW OR NO CLOUDS BELOW 12,000 FEET WITH NO SIGNIFICANT WEATHER AND/OR OBSTRUCTIONS TO VISIBILITY NCZ015>017-031-032-045>047-102-103-271200- NORTH COAST CITY SKY/WX TMP DP RH WIND PRES REMARKS EDENTON NOT AVBL ELIZABETH CITY MOCLDY 56 53 90 S3 30.15R KITTY HAWK NOT AVBL MANTEO N/A 52 52 100 CALM 30.16S FOG $$ NCZ045>047-081-094-103-104-271200- CENTRAL COAST CITY SKY/WX TMP DP RH WIND PRES REMARKS FRISCO CLEAR 66 52 60 S8 30.15R $$ NCZ095-097-098-100-101-271200- SOUTHERN COAST CITY SKY/WX TMP DP RH WIND PRES REMARKS BEAUFORT PTCLDY 56 54 93 CALM 30.15R CEDAR ISLAND NOT AVBL JACKSONVILLE CLEAR 50 50 100 CALM 30.14R PINEY ISLAND NOT AVBL WILMINGTON CLEAR 50 49 96 CALM 30.14R $$ NCZ011>013-027>030-043-044-078>080-089-090>093-098-271200- COASTAL PLAIN CITY SKY/WX TMP DP RH WIND PRES REMARKS AHOSKIE NOT AVBL CLINTON CLEAR 56 55 98 CALM 30.14R ELIZABETHTOWN CLEAR 52 52 100 CALM 30.14R FOG GOLDSBORO CLEAR 55 55 100 CALM 30.13R GREENVILLE FOG 52 52 100 CALM 30.16R VSB 1/2 HAVELOCK PTCLDY 52 50 93 CALM 30.16R KENANSVILLE CLEAR 48 46 93 CALM 30.15R KINSTON CLEAR 54 54 100 CALM 30.15R NEW BERN CLEAR 49 48 97 CALM 30.16R RICHLANDS PTCLDY 48 47 96 CALM 30.15R ROCKY MOUNT PTCLDY 51 51 100 CALM 30.14R WASHINGTON CLEAR 52 51 98 CALM 30.15R WHITEVILLE CLEAR 52 51 95 CALM 30.13R $$ AMZ130-135-150-152-154-156-158-170-250-252-270-ANZ085-086-088-633-658-670-271200- MARINE OBSERVATIONS STATION/POSITION TIME TEMP WIND PRES WAVE SWELL AIR SEA DIR/SP/G HT/PER HT/PER (UTC) (F) (DEG/KT/KT) (MB) (FT/S) (FT/S) CHESAPEAKE LIGHT NOT AVBL 64 E VA BEACH 1050 55 51 180/ 6/ 8 1021.0 4/ 7 3/ 7 DUCK 1100 56 50 180/ 7/ 7 1020.5 2 E DUCK 1100 51 N/A 3/ 7 OREGON INLET 1100 57 55 140/ 4/ 5 1021.1 13E OREGON INLT 1048 51 N/A 4/ 8 3/ 8 HATTERAS CG 1100 66 60 160/ 6/ 8 1020.7 DIAMOND BUOY 1050 69 75 200/ 10/ 12 1021.2 3/ 9 3/ 9 CAPE LOOKOUT 1100 65 130/ 3/ 4 1020.5 BEAUFORT LAB 1100 60 57 350/ 2/ 3 1019.9 30 SE NEW RVR IN 1108 65 230/ 2/ 2 1020.7 30 SE NEW RVR IN 1113 64 N/A 3/10 2/18 27 SE WRIGHTSVLE 1108 67 65 190/ 6/ 8 1019.4 5 SE WRIGHTSVLE 1108 60 60 50/ 2/ 6 1020.4 225 S CAPE HAT 1050 69 72 70/ 10/ 12 1020.6 5/ 8 5/ 8 41 SE CHARLESTON 1050 71 74 190/ 8/ 10 1019.5 4/ 9 3/ 9 $$

USA.gov is the U.S. government's official web portal to all federal, state and local government web resources and services.